Location: Songkhla
(7.2000°N, 100.6000°E)
Time: 02:59:15
(UTC+07:00)

LAPAN A2 - All Passes

Search period start: 23 April 2026 00:00
Search period end: 03 May 2026 00:00
Orbit: 624 x 642 km, 6.0° (Epoch: 31 May)

Date Brightness Start Highest point End Pass type
(mag) Time Alt. Az. Time Alt. Az. Time Alt. Az.
23 Apr - 01:18:09 10° WSW 01:22:34 41° S 01:27:01 10° ESE night (unlit)
23 Apr - 03:02:08 10° WSW 03:06:47 58° S 03:11:27 10° E visible
23 Apr - 04:46:16 10° W 04:50:59 73° S 04:55:44 10° E visible
23 Apr - 06:30:29 10° W 06:35:13 77° S 06:39:59 10° E daylight
23 Apr - 08:14:43 10° W 08:19:27 68° S 08:24:10 10° E daylight
23 Apr - 09:59:03 10° W 10:03:40 52° S 10:08:16 10° ESE daylight
23 Apr - 11:43:31 10° WSW 11:47:53 36° S 11:52:13 10° ESE daylight
23 Apr - 13:28:14 10° WSW 13:32:08 25° S 13:36:01 10° SE daylight
23 Apr - 15:13:08 10° SW 15:16:27 19° S 15:19:46 10° SE daylight
23 Apr - 16:58:00 10° SW 17:00:50 16° S 17:03:41 10° SE daylight
23 Apr - 18:42:28 10° SW 18:45:17 16° S 18:48:04 10° SE visible
23 Apr - 20:26:27 10° SW 20:29:40 18° S 20:32:53 10° SE visible
23 Apr - 22:10:13 10° SW 22:14:00 24° S 22:17:47 10° ESE night (unlit)
23 Apr - 23:53:59 10° WSW 23:58:14 34° S 00:02:30 10° ESE night (unlit)
24 Apr - 01:37:53 10° WSW 01:42:26 49° S 01:47:00 10° E night (unlit)
24 Apr - 03:21:57 10° WSW 03:26:38 66° S 03:31:20 10° E visible
24 Apr - 05:06:07 10° W 05:10:52 77° S 05:15:36 10° E visible
24 Apr - 06:50:21 10° W 06:55:05 74° S 06:59:50 10° E daylight
24 Apr - 08:34:37 10° W 08:39:18 61° S 08:44:00 10° ESE daylight
24 Apr - 10:19:00 10° WSW 10:23:31 43° S 10:28:02 10° ESE daylight
24 Apr - 12:03:35 10° WSW 12:07:45 30° S 12:11:54 10° SE daylight
24 Apr - 13:48:24 10° SW 13:52:02 22° S 13:55:39 10° SE daylight
24 Apr - 15:33:19 10° SW 15:36:24 17° S 15:39:28 10° SE daylight
24 Apr - 17:18:03 10° SW 17:20:49 15° S 17:23:36 10° SE daylight
24 Apr - 19:02:16 10° SW 19:05:14 17° S 19:08:12 10° SE visible
24 Apr - 20:46:07 10° SW 20:49:36 21° S 20:53:06 10° SE visible
24 Apr - 22:29:51 10° SW 22:33:53 28° S 22:37:54 10° ESE night (unlit)
25 Apr - 00:13:41 10° WSW 00:18:05 41° S 00:22:31 10° ESE night (unlit)
25 Apr - 01:57:40 10° WSW 02:02:17 58° S 02:06:56 10° E night (unlit)
25 Apr - 03:41:47 10° W 03:46:30 73° S 03:51:13 10° E visible
25 Apr - 05:25:59 10° W 05:30:43 77° S 05:35:28 10° E visible
25 Apr - 07:10:14 10° W 07:14:57 68° S 07:19:41 10° E daylight
25 Apr - 08:54:32 10° W 08:59:10 52° S 09:03:47 10° ESE daylight
25 Apr - 10:39:01 10° WSW 10:43:23 36° S 10:47:45 10° ESE daylight
25 Apr - 12:23:43 10° WSW 12:27:38 25° S 12:31:33 10° SE daylight
25 Apr - 14:08:37 10° SW 14:11:58 19° S 14:15:19 10° SE daylight
25 Apr - 15:53:29 10° SW 15:56:22 16° S 15:59:14 10° SE daylight
25 Apr - 17:37:58 10° SW 17:40:47 16° S 17:43:36 10° SE daylight
25 Apr - 19:21:58 10° SW 19:25:11 18° S 19:28:24 10° SE visible
25 Apr - 21:05:45 10° SW 21:09:31 24° S 21:13:16 10° ESE visible
25 Apr - 22:49:31 10° WSW 22:53:46 34° S 22:57:59 10° ESE night (unlit)
26 Apr - 00:33:26 10° WSW 00:37:57 49° S 00:42:29 10° E night (unlit)
26 Apr - 02:17:29 10° WSW 02:22:09 66° S 02:26:50 10° E night (unlit)
26 Apr - 04:01:39 10° W 04:06:21 77° S 04:11:06 10° E visible
26 Apr - 05:45:51 10° W 05:50:35 74° S 05:55:19 10° E visible
26 Apr - 07:30:07 10° W 07:34:48 61° S 07:39:30 10° ESE daylight
26 Apr - 09:14:29 10° WSW 09:19:01 44° S 09:23:33 10° ESE daylight
26 Apr - 10:59:05 10° WSW 11:03:15 30° S 11:07:25 10° SE daylight
26 Apr - 12:43:53 10° WSW 12:47:33 22° S 12:51:12 10° SE daylight
26 Apr - 14:28:49 10° SW 14:31:54 17° S 14:35:00 10° SE daylight
26 Apr - 16:13:32 10° SW 16:16:20 16° S 16:19:07 10° SE daylight
26 Apr - 17:57:47 10° SW 18:00:46 17° S 18:03:44 10° SE daylight
26 Apr - 19:41:38 10° SW 19:45:08 21° S 19:48:36 10° SE visible
26 Apr - 21:25:23 10° SW 21:29:25 28° S 21:33:25 10° ESE night (unlit)
26 Apr - 23:09:14 10° WSW 23:13:37 41° S 23:18:02 10° ESE night (unlit)
27 Apr - 00:53:13 10° WSW 00:57:48 58° S 01:02:26 10° E night (unlit)
27 Apr - 02:37:19 10° W 02:42:01 73° S 02:46:42 10° E visible
27 Apr - 04:21:31 10° W 04:26:13 77° S 04:30:57 10° E visible
27 Apr - 06:05:44 10° W 06:10:27 69° S 06:15:10 10° E daylight
27 Apr - 07:50:02 10° W 07:54:40 52° S 07:59:17 10° ESE daylight
27 Apr - 09:34:30 10° WSW 09:38:52 36° S 09:43:15 10° ESE daylight
27 Apr - 11:19:11 10° WSW 11:23:08 26° S 11:27:04 10° SE daylight
27 Apr - 13:04:05 10° SW 13:07:28 19° S 13:10:51 10° SE daylight
27 Apr - 14:48:57 10° SW 14:51:53 16° S 14:54:47 10° SE daylight
27 Apr - 16:33:28 10° SW 16:36:19 16° S 16:39:09 10° SE daylight
27 Apr - 18:17:29 10° SW 18:20:43 18° S 18:23:56 10° SE daylight
27 Apr - 20:01:16 10° SW 20:05:02 24° S 20:08:48 10° ESE visible
27 Apr - 21:45:04 10° WSW 21:49:16 34° S 21:53:30 10° ESE night (unlit)
27 Apr - 23:28:58 10° WSW 23:33:29 49° S 23:38:00 10° E night (unlit)
28 Apr - 01:13:01 10° WSW 01:17:40 66° S 01:22:19 10° E night (unlit)
28 Apr - 02:57:11 10° W 03:01:52 76° S 03:06:34 10° E visible
28 Apr - 04:41:23 10° W 04:46:05 74° S 04:50:48 10° E visible
28 Apr - 06:25:38 10° W 06:30:18 61° S 06:34:59 10° ESE daylight
28 Apr - 08:10:00 10° WSW 08:14:30 44° S 08:19:02 10° ESE daylight
28 Apr - 09:54:33 10° WSW 09:58:44 30° S 10:02:56 10° SE daylight
28 Apr - 11:39:21 10° WSW 11:43:03 22° S 11:46:43 10° SE daylight
28 Apr - 13:24:17 10° SW 13:27:25 17° S 13:30:32 10° SE daylight
28 Apr - 15:09:00 10° SW 15:11:51 16° S 15:14:40 10° SE daylight
28 Apr - 16:53:16 10° SW 16:56:16 17° S 16:59:16 10° SE daylight
28 Apr - 18:37:08 10° SW 18:40:39 21° S 18:44:08 10° SE daylight
28 Apr - 20:20:55 10° SW 20:24:56 28° S 20:28:56 10° ESE visible
28 Apr - 22:04:45 10° WSW 22:09:09 41° S 22:13:32 10° ESE night (unlit)
28 Apr - 23:48:45 10° WSW 23:53:19 57° S 23:57:55 10° E night (unlit)
29 Apr - 01:32:52 10° W 01:37:31 72° S 01:42:12 10° E night (unlit)
29 Apr - 03:17:02 10° W 03:21:44 77° S 03:26:26 10° E visible
29 Apr - 05:01:15 10° W 05:05:56 69° S 05:10:38 10° E visible
29 Apr - 06:45:33 10° W 06:50:09 52° S 06:54:46 10° ESE daylight
29 Apr - 08:30:00 10° WSW 08:34:22 37° S 08:38:45 10° ESE daylight
29 Apr - 10:14:40 10° WSW 10:18:38 26° S 10:22:35 10° SE daylight
29 Apr - 11:59:33 10° SW 12:02:58 19° S 12:06:22 10° SE daylight
29 Apr - 13:44:25 10° SW 13:47:22 16° S 13:50:18 10° SE daylight
29 Apr - 15:28:56 10° SW 15:31:49 16° S 15:34:41 10° SE daylight
29 Apr - 17:12:58 10° SW 17:16:13 18° S 17:19:28 10° SE daylight
29 Apr - 18:56:46 10° SW 19:00:33 24° S 19:04:19 10° ESE visible
29 Apr - 20:40:34 10° WSW 20:44:48 34° S 20:49:01 10° ESE visible
29 Apr - 22:24:29 10° WSW 22:29:00 49° S 22:33:30 10° E night (unlit)
30 Apr - 00:08:33 10° WSW 00:13:10 66° S 00:17:49 10° E night (unlit)
30 Apr - 01:52:42 10° W 01:57:22 76° S 02:02:04 10° E night (unlit)
30 Apr - 03:36:54 10° W 03:41:35 74° S 03:46:17 10° E visible
30 Apr - 05:21:08 10° W 05:25:47 61° S 05:30:27 10° ESE visible
30 Apr - 07:05:30 10° WSW 07:10:00 44° S 07:14:31 10° ESE daylight
30 Apr - 08:50:02 10° WSW 08:54:14 31° S 08:58:25 10° SE daylight
30 Apr - 10:34:50 10° WSW 10:38:32 22° S 10:42:13 10° SE daylight
30 Apr - 12:19:45 10° SW 12:22:54 17° S 12:26:03 10° SE daylight
30 Apr - 14:04:28 10° SW 14:07:20 16° S 14:10:11 10° SE daylight
30 Apr - 15:48:44 10° SW 15:51:47 17° S 15:54:48 10° SE daylight
30 Apr - 17:32:38 10° SW 17:36:09 21° S 17:39:40 10° SE daylight
30 Apr - 19:16:25 10° SW 19:20:26 28° S 19:24:28 10° ESE visible
30 Apr - 21:00:16 10° WSW 21:04:39 40° S 21:09:02 10° ESE visible
30 Apr - 22:44:16 10° WSW 22:48:51 57° S 22:53:25 10° E night (unlit)
1 May - 00:28:23 10° W 00:33:02 72° S 00:37:41 10° E night (unlit)
1 May - 02:12:34 10° W 02:17:14 77° S 02:21:55 10° E night (unlit)
1 May - 03:56:46 10° W 04:01:26 69° S 04:06:07 10° E visible
1 May - 05:41:04 10° W 05:45:38 52° S 05:50:15 10° ESE visible
1 May - 07:25:30 10° WSW 07:29:51 37° S 07:34:14 10° ESE daylight
1 May - 09:10:09 10° WSW 09:14:06 26° S 09:18:04 10° SE daylight
1 May - 10:55:01 10° SW 10:58:27 19° S 11:01:52 10° SE daylight
1 May - 12:39:53 10° SW 12:42:51 16° S 12:45:49 10° SE daylight
1 May - 14:24:23 10° SW 14:27:18 16° S 14:30:12 10° SE daylight
1 May - 16:08:27 10° SW 16:11:43 18° S 16:14:59 10° SE daylight
1 May - 17:52:15 10° SW 17:56:03 24° S 17:59:51 10° ESE daylight
1 May - 19:36:04 10° WSW 19:40:18 34° S 19:44:32 10° ESE visible
1 May - 21:20:00 10° WSW 21:24:30 48° S 21:29:01 10° E visible
1 May - 23:04:04 10° WSW 23:08:41 66° S 23:13:19 10° E night (unlit)
2 May - 00:48:14 10° W 00:52:53 76° S 00:57:34 10° E night (unlit)
2 May - 02:32:26 10° W 02:37:05 74° S 02:41:46 10° E night (unlit)
2 May - 04:16:40 10° W 04:21:17 61° S 04:25:57 10° ESE visible
2 May - 06:01:01 10° WSW 06:05:29 44° S 06:10:00 10° ESE daylight
2 May - 07:45:33 10° WSW 07:49:43 31° S 07:53:54 10° SE daylight
2 May - 09:30:19 10° WSW 09:34:00 22° S 09:37:42 10° SE daylight
2 May - 11:15:13 10° SW 11:18:23 17° S 11:21:33 10° SE daylight
2 May - 12:59:56 10° SW 13:02:49 16° S 13:05:42 10° SE daylight
2 May - 14:44:12 10° SW 14:47:16 17° S 14:50:19 10° SE daylight
2 May - 16:28:06 10° SW 16:31:39 21° S 16:35:11 10° SE daylight
2 May - 18:11:54 10° SW 18:15:56 28° S 18:19:59 10° ESE daylight
2 May - 19:55:45 10° WSW 20:00:10 40° S 20:04:34 10° ESE visible
2 May - 21:39:46 10° WSW 21:44:21 57° S 21:48:56 10° E night (unlit)
2 May - 23:23:54 10° W 23:28:32 72° S 23:33:12 10° E night (unlit)
